Location: Samoth
(37.3328°N, 88.7876°W)
Time: 12:29:38
(UTC+00:00)

Cosmos 2369 - Pass Details

Date: 29 October 2020
Orbit: 841 x 854 km, 71.0° (Epoch: 05 December)

Event Time Altitude Azimuth Distance (km) Brightness Sun altitude
Rises 23:29:17 0° 177° (S) 3,405 7.0 -6.5°
Reaches altitude 10° 23:31:54 10° 169° (SSE) 2,473 6.2 -7.0°
Maximum altitude 23:37:01 36° 104° (ESE) 1,329 4.3 -8.0°
Drops below altitude 10° 23:42:09 10° 40° (NE) 2,481 5.7 -9.0°
Sets 23:44:47 0° 32° (NNE) 3,418 6.5 -9.5°
